Regional Weather Roundup
Issued by NWS

Home | Current Version | Previous Version | Graphics & Text | Print | Product List | Glossary On
Versions: 1 2 3 4 5 6 7 8 9 10 11 12 13 14 15 16 17 18 19 20 21 22 23 24 25 26 27 28 29 30 31 32 33 34 35 36 37 38 39 40 41 42 43 44 45 46 47 48 49 50
579
ASUS43 KOAX 230410
RWRNE

WEATHER ROUNDUP FOR NEBRASKA
NATIONAL WEATHER SERVICE OMAHA NE
1100 PM CDT SUN OCT 22 2017

NOTES: SATELLITE DATA IS BEING USED TO AUGMENT CLOUD COVER ABOVE
       12000 FEET.
       "FAIR" INDICATES FEW OR NO CLOUDS BELOW 12,000 FEET WITH NO
       SIGNIFICANT WEATHER AND/OR OBSTRUCTIONS TO VISIBILITY.


NEZ001>004-019>022-054>056-230500-
NEBRASKA PANHANDLE

CITY           SKY/WX    TMP DP  RH WIND       PRES   REMARKS
SCOTTSBLUFF    CLEAR     61  29  29 W17G23    30.02R
ALLIANCE       CLEAR     52  29  41 W12       29.99R
CHADRON        CLOUDY    52  29  41 W5        29.95R
GORDON         FAIR      53  32  44 W9        29.94R
KIMBALL        CLOUDY    54  28  36 W15       30.09R
SIDNEY         CLOUDY    48  28  46 W12       30.07R
$$

NEZ057>060-069>072-079>082-230500-
SOUTHWEST NEBRASKA

CITY           SKY/WX    TMP DP  RH WIND       PRES   REMARKS
NORTH PLATTE   PTCLDY    45  37  73 CALM      29.97F
IMPERIAL       CLOUDY    43  31  62 SW6       30.02S
LEXINGTON      CLEAR     53  29  39 SW6       29.98R
MCCOOK         CLEAR     52  27  38 W9        30.01R
OGALLALA       CLEAR     44  33  67 W6        30.01S
$$

NEZ005>010-023>029-035>040-094-230500-
NORTH CENTRAL NEBRASKA

CITY           SKY/WX    TMP DP  RH WIND       PRES   REMARKS
VALENTINE      MOCLDY    54  35  48 SW9       29.88S
AINSWORTH      CLEAR     52  35  52 SW9       29.89S
BROKEN BOW     CLEAR     43  34  70 CALM      29.94F
O`NEILL        CLOUDY    51  35  55 SW6       29.88F
ORD            CLOUDY    50  31  48 SW9       29.91F
THEDFORD       CLEAR     51  35  53 W5        29.94F
$$

NEZ041-046>049-061>064-073>077-083>087-230500-
SOUTH CENTRAL NEBRASKA

CITY           SKY/WX    TMP DP  RH WIND       PRES   REMARKS
GRAND ISLAND   CLEAR     56  29  35 S14       29.96F
AURORA         CLEAR     52  31  44 S8        29.96F
HASTINGS       CLEAR     54  27  35 S9        29.98F
HEBRON         CLEAR     55  30  39 S7        30.00S
HOLDREGE       CLEAR     52  28  40 SW8       29.98F
KEARNEY        CLEAR     53  28  38 SW10      29.97F
YORK           CLOUDY    50  32  50 S8        29.97F
$$

NEZ011>018-030>034-042>045-230500-
NORTHEAST NEBRASKA

CITY           SKY/WX    TMP DP  RH WIND       PRES   REMARKS
NORFOLK        CLOUDY    55  31  39 S17       29.90F
ALBION         PTCLDY    52  32  45 CALM      29.92F
BLAIR          CLEAR     54  33  45 S9        29.95F
COLUMBUS       CLOUDY    55  32  41 S10       29.94
FREMONT        CLEAR     56  31  39 S8        29.96S
TEKAMAH        CLEAR     45  33  63 S6        29.94F
WAYNE          CLEAR     48  32  53 SW7       29.91S
$$

NEZ050>053-065>068-078-088>093-230500-
SOUTHEAST NEBRASKA

CITY           SKY/WX    TMP DP  RH WIND       PRES   REMARKS
LINCOLN        CLOUDY    51  34  52 S6        29.98F
OMAHA EPPLEY   CLEAR     50  36  58 SE10      29.97S
BEATRICE       CLOUDY    53  33  46 S9        30.00S
FALLS CITY     CLEAR     51  35  54 S8        30.01F
NEBRASKA CITY  CLEAR     51  35  53 S9        30.00R
PLATTSMOUTH    CLEAR     52  33  49 S9        29.98R
$$

NEZ044-045-051>053-067-230500-
OMAHA AREA

CITY           SKY/WX    TMP DP  RH WIND       PRES   REMARKS
OMAHA EPPLEY   CLEAR     50  36  58 SE10      29.97S
BLAIR          CLEAR     54  33  45 S9        29.95F
FREMONT        CLEAR     56  31  39 S8        29.96S
MILLARD        CLEAR     53  36  53 CALM      29.97F
OFFUTT AFB     CLEAR     43  35  75 CALM      29.97F
PLATTSMOUTH    CLEAR     52  33  49 S9        29.98R
WAHOO          FAIR      50  33  53 S7        29.96F
$$




USA.gov is the U.S. government's official web portal to all federal, state and local government web resources and services.